CCA0830 ZGGG-ZLLL

Flight info

Callsign CCA0830
Flight time N/A
Altitude 32100
Route AGVIL W24 OSNOV G586 QP B330 ELKAL W179 OMBON W195 ORUNA
Aircraft A321/L-V/N

Departure

Time N/A
Airport Guangzhou Baiyun International Airport (ZGGG)

Arrival

Time 2026-04-26 08:17
Airport Lanzhou Zhongchuan International Airport (ZLLL)
Time Latitude Longitude Altitude Speed Heading
2026-04-26 06:13 25.61692 109.77918 32068 ft 434 kts 313°
2026-04-26 06:14 25.66060 109.73303 32068 ft 434 kts 313°
2026-04-26 06:14 25.70424 109.68686 32067 ft 433 kts 313°
2026-04-26 06:15 25.74716 109.64074 32054 ft 430 kts 308°
2026-04-26 06:15 25.78020 109.58637 32051 ft 424 kts 293°
2026-04-26 06:16 25.79913 109.52487 32048 ft 421 kts 285°
2026-04-26 06:16 25.81566 109.46226 32069 ft 424 kts 285°
2026-04-26 06:17 25.83222 109.39955 32055 ft 423 kts 285°
2026-04-26 06:17 25.84868 109.33695 32059 ft 423 kts 285°
2026-04-26 06:18 25.86513 109.27419 32064 ft 423 kts 285°
2026-04-26 06:18 25.88144 109.21185 32059 ft 422 kts 284°
2026-04-26 06:19 25.89781 109.14911 32071 ft 423 kts 284°
2026-04-26 06:19 25.91418 109.08629 32068 ft 422 kts 284°
2026-04-26 06:20 25.93054 109.02360 32062 ft 424 kts 285°
2026-04-26 06:20 25.94729 108.96073 32065 ft 424 kts 285°
2026-04-26 06:21 25.96402 108.89791 32074 ft 424 kts 285°
2026-04-26 06:21 25.98067 108.83508 32077 ft 429 kts 285°
2026-04-26 06:22 25.99772 108.77063 32067 ft 444 kts 285°
2026-04-26 06:22 26.01546 108.70354 32068 ft 454 kts 285°
2026-04-26 06:23 26.03337 108.63628 32072 ft 459 kts 285°
2026-04-26 06:23 26.05153 108.56800 32187 ft 458 kts 285°
2026-04-26 06:23 26.06040 108.53467 32125 ft 442 kts 285°
2026-04-26 06:24 26.06892 108.50252 32073 ft 425 kts 285°
2026-04-26 06:24 26.08538 108.44020 32081 ft 426 kts 285°
2026-04-26 06:25 26.10505 108.37782 32078 ft 428 kts 293°
2026-04-26 06:25 26.13106 108.31813 32085 ft 429 kts 294°
2026-04-26 06:26 26.15703 108.25808 32084 ft 430 kts 294°
2026-04-26 06:26 26.18290 108.19816 32077 ft 430 kts 294°
2026-04-26 06:27 26.20883 108.13808 32082 ft 431 kts 294°
2026-04-26 06:27 26.23484 108.07773 32087 ft 432 kts 294°
2026-04-26 06:28 26.26077 108.01751 32086 ft 431 kts 294°
2026-04-26 06:28 26.28674 107.95705 32082 ft 433 kts 294°
2026-04-26 06:29 26.31258 107.89684 32075 ft 434 kts 294°
2026-04-26 06:29 26.33878 107.83571 32080 ft 434 kts 294°
2026-04-26 06:30 26.36464 107.77531 32071 ft 434 kts 294°
2026-04-26 06:30 26.39062 107.71451 32067 ft 434 kts 294°
2026-04-26 06:31 26.41657 107.65370 32064 ft 434 kts 294°
2026-04-26 06:31 26.44252 107.59280 32069 ft 435 kts 294°
2026-04-26 06:32 26.46847 107.53182 32066 ft 435 kts 294°
2026-04-26 06:32 26.49441 107.47070 32074 ft 436 kts 294°
2026-04-26 06:33 26.52033 107.40947 32072 ft 436 kts 294°
2026-04-26 06:33 26.54619 107.34831 32078 ft 437 kts 294°
2026-04-26 06:34 26.57219 107.28687 32083 ft 437 kts 294°
2026-04-26 06:34 26.59823 107.22533 32086 ft 438 kts 294°
2026-04-26 06:35 26.62429 107.16364 32096 ft 439 kts 294°
2026-04-26 06:35 26.65041 107.10191 32094 ft 440 kts 294°
2026-04-26 06:36 26.67671 107.04011 32095 ft 440 kts 294°
2026-04-26 06:36 26.70295 106.97832 32089 ft 438 kts 294°
2026-04-26 06:37 26.72912 106.91655 32091 ft 440 kts 294°
2026-04-26 06:37 26.75509 106.85516 32083 ft 440 kts 294°
2026-04-26 06:38 26.78416 106.79490 32081 ft 441 kts 303°
2026-04-26 06:38 26.82479 106.74303 32074 ft 445 kts 316°
2026-04-26 06:39 26.87161 106.69740 32055 ft 445 kts 316°
2026-04-26 06:39 26.91829 106.65161 32048 ft 446 kts 316°
2026-04-26 06:40 26.96495 106.60581 32036 ft 446 kts 316°
2026-04-26 06:40 27.01165 106.55996 32022 ft 446 kts 316°
2026-04-26 06:41 27.05834 106.51408 32018 ft 446 kts 316°
2026-04-26 06:41 27.10468 106.46848 31999 ft 446 kts 316°
2026-04-26 06:42 27.15127 106.42259 31988 ft 446 kts 316°
2026-04-26 06:42 27.19787 106.37663 31968 ft 446 kts 316°
2026-04-26 06:43 27.23709 106.33828 31971 ft 446 kts 317°
2026-04-26 06:43 27.28411 106.29267 31961 ft 447 kts 317°
2026-04-26 06:44 27.33080 106.24724 31957 ft 447 kts 317°
2026-04-26 06:44 27.37781 106.20141 31953 ft 447 kts 317°
2026-04-26 06:45 27.42483 106.15549 31956 ft 447 kts 317°
2026-04-26 06:45 27.47178 106.10960 31952 ft 447 kts 317°
2026-04-26 06:46 27.51880 106.06356 31950 ft 448 kts 317°
2026-04-26 06:46 27.56592 106.01739 31951 ft 449 kts 317°
2026-04-26 06:47 27.61301 105.97118 31949 ft 449 kts 317°
2026-04-26 06:47 27.66004 105.92499 31942 ft 448 kts 317°
2026-04-26 06:48 27.70617 105.87777 31939 ft 446 kts 310°
2026-04-26 06:48 27.73987 105.81979 31934 ft 442 kts 292°
2026-04-26 06:49 27.75935 105.75463 31932 ft 441 kts 287°
2026-04-26 06:49 27.77787 105.68851 31937 ft 442 kts 287°
2026-04-26 06:50 27.79646 105.62237 31931 ft 442 kts 288°
2026-04-26 06:50 27.82036 105.55823 31937 ft 444 kts 292°
2026-04-26 06:51 27.84514 105.49427 31940 ft 444 kts 292°
2026-04-26 06:51 27.88228 105.39805 31937 ft 446 kts 292°
2026-04-26 06:52 27.90982 105.33516 31933 ft 447 kts 296°
2026-04-26 06:52 27.93782 105.27237 31929 ft 447 kts 296°
2026-04-26 06:53 27.96640 105.20983 31932 ft 449 kts 301°
2026-04-26 06:53 28.00699 105.15681 31925 ft 452 kts 319°
2026-04-26 06:54 28.05969 105.11756 31918 ft 454 kts 326°
2026-04-26 06:54 28.11353 105.07998 31914 ft 455 kts 326°
2026-04-26 06:55 28.16733 105.04232 31903 ft 453 kts 326°
2026-04-26 06:55 28.22098 105.00476 31898 ft 453 kts 326°
2026-04-26 06:56 28.27464 104.96715 31892 ft 453 kts 326°
2026-04-26 06:56 28.32787 104.92980 31889 ft 453 kts 326°
2026-04-26 06:57 28.38147 104.89214 31886 ft 453 kts 326°
2026-04-26 06:57 28.43518 104.85452 31886 ft 453 kts 327°
2026-04-26 06:58 28.48892 104.81700 31888 ft 453 kts 327°
2026-04-26 06:58 28.54268 104.77938 31886 ft 454 kts 327°
2026-04-26 06:59 28.59639 104.74175 31886 ft 453 kts 326°
2026-04-26 06:59 28.65009 104.70408 31888 ft 453 kts 326°
2026-04-26 07:00 28.70375 104.66638 31888 ft 453 kts 326°
2026-04-26 07:00 28.75740 104.62865 31887 ft 452 kts 326°
2026-04-26 07:01 28.81093 104.59095 31889 ft 452 kts 326°
2026-04-26 07:01 28.86411 104.55343 31887 ft 452 kts 326°
2026-04-26 07:02 28.91742 104.51550 31886 ft 451 kts 326°
2026-04-26 07:02 28.97064 104.47755 31888 ft 451 kts 326°
2026-04-26 07:03 29.02380 104.43963 31890 ft 450 kts 326°
2026-04-26 07:03 29.07688 104.40173 31886 ft 450 kts 326°
2026-04-26 07:04 29.12993 104.36379 31885 ft 449 kts 326°
2026-04-26 07:04 29.18291 104.32587 31890 ft 449 kts 326°
2026-04-26 07:05 29.23622 104.28866 31888 ft 450 kts 332°
2026-04-26 07:05 29.26551 104.27592 31897 ft 453 kts 343°
2026-04-26 07:05 29.29666 104.27007 31881 ft 457 kts 354°
2026-04-26 07:06 29.32859 104.27145 31882 ft 461 kts
2026-04-26 07:06 29.36031 104.27688 31882 ft 461 kts
2026-04-26 07:06 29.42351 104.28766 31889 ft 461 kts
2026-04-26 07:07 29.48713 104.29846 31894 ft 462 kts
2026-04-26 07:07 29.55086 104.30930 31904 ft 463 kts
2026-04-26 07:08 29.61457 104.32014 31911 ft 463 kts
2026-04-26 07:08 29.67799 104.33095 31929 ft 464 kts
2026-04-26 07:09 29.74206 104.34189 31931 ft 466 kts
2026-04-26 07:09 29.80623 104.35285 31941 ft 466 kts
2026-04-26 07:11 29.96691 104.38038 31950 ft 467 kts
2026-04-26 07:11 30.03116 104.39141 31962 ft 467 kts
2026-04-26 07:12 30.09546 104.40245 31962 ft 467 kts
2026-04-26 07:12 30.15931 104.41344 31964 ft 467 kts
2026-04-26 07:13 30.22349 104.42461 31963 ft 466 kts
2026-04-26 07:13 30.28773 104.43582 31957 ft 466 kts
2026-04-26 07:14 30.35195 104.44703 31955 ft 466 kts
2026-04-26 07:14 30.41608 104.45823 31950 ft 466 kts
2026-04-26 07:15 30.48026 104.46946 31953 ft 466 kts
2026-04-26 07:15 30.54440 104.48070 31948 ft 466 kts
2026-04-26 07:16 30.60838 104.48405 31950 ft 462 kts 352°
2026-04-26 07:16 30.67056 104.46714 31946 ft 458 kts 339°
2026-04-26 07:17 30.73117 104.44386 31953 ft 459 kts 340°
2026-04-26 07:17 30.79187 104.42065 31955 ft 459 kts 340°
2026-04-26 07:18 30.85294 104.39846 31969 ft 461 kts 345°
2026-04-26 07:18 30.91670 104.38882 31964 ft 465 kts 356°
2026-04-26 07:19 30.98146 104.38725 31970 ft 465 kts 356°
2026-04-26 07:19 31.04628 104.38542 31972 ft 465 kts 356°
2026-04-26 07:20 31.11099 104.38368 31980 ft 465 kts 356°
2026-04-26 07:20 31.17534 104.38197 31978 ft 465 kts 356°
2026-04-26 07:21 31.24011 104.38026 31984 ft 465 kts 356°
2026-04-26 07:21 31.30472 104.37739 31984 ft 464 kts 354°
2026-04-26 07:22 31.36911 104.37325 31986 ft 463 kts 354°
2026-04-26 07:22 31.43353 104.36933 31987 ft 463 kts 354°
2026-04-26 07:23 31.49777 104.36556 31987 ft 462 kts 354°
2026-04-26 07:23 31.56201 104.36181 31987 ft 461 kts 354°
2026-04-26 07:24 31.62565 104.35809 31984 ft 460 kts 354°
2026-04-26 07:24 31.68963 104.35435 31986 ft 460 kts 354°
2026-04-26 07:25 31.75362 104.35058 31989 ft 460 kts 354°
2026-04-26 07:25 31.81764 104.34705 31993 ft 460 kts 354°
2026-04-26 07:26 31.88170 104.34387 31994 ft 460 kts 354°
2026-04-26 07:26 31.94577 104.34063 31988 ft 460 kts 354°
2026-04-26 07:27 32.00981 104.33736 31989 ft 460 kts 354°
2026-04-26 07:27 32.07317 104.33411 31979 ft 456 kts 354°
2026-04-26 07:28 32.13665 104.33083 31979 ft 459 kts 354°
2026-04-26 07:28 32.20029 104.32754 31975 ft 456 kts 354°
2026-04-26 07:29 32.26401 104.32425 31977 ft 457 kts 354°
2026-04-26 07:29 32.32760 104.32096 31980 ft 458 kts 354°
2026-04-26 07:30 32.39118 104.31767 31989 ft 458 kts 354°
2026-04-26 07:30 32.45483 104.31447 31987 ft 458 kts 354°
2026-04-26 07:31 32.51854 104.31144 31996 ft 457 kts 354°
2026-04-26 07:31 32.58169 104.30842 32003 ft 458 kts 354°
2026-04-26 07:32 32.63511 104.30586 32000 ft 459 kts 354°
2026-04-26 07:32 32.70916 104.30231 32007 ft 457 kts 354°
2026-04-26 07:33 32.76214 104.29976 32005 ft 459 kts 354°
2026-04-26 07:33 32.82585 104.29669 32008 ft 456 kts 354°
2026-04-26 07:34 32.88929 104.29363 32009 ft 458 kts 354°
2026-04-26 07:34 32.95327 104.29052 32007 ft 459 kts 354°
2026-04-26 07:35 33.01678 104.28744 32004 ft 460 kts 354°
2026-04-26 07:35 33.08087 104.28434 31999 ft 461 kts 354°
2026-04-26 07:36 33.14505 104.28121 31998 ft 461 kts 353°
2026-04-26 07:36 33.20913 104.27809 31999 ft 461 kts 354°
2026-04-26 07:37 33.27325 104.27497 31994 ft 461 kts 353°
2026-04-26 07:37 33.33683 104.26888 31989 ft 455 kts 344°
2026-04-26 07:38 33.39583 104.24436 31983 ft 446 kts 329°
2026-04-26 07:38 33.44971 104.20780 31982 ft 444 kts 327°
2026-04-26 07:39 33.50319 104.17146 31987 ft 446 kts 327°
2026-04-26 07:39 33.55746 104.13524 31990 ft 447 kts 331°
2026-04-26 07:40 33.61764 104.11402 31984 ft 457 kts 349°
2026-04-26 07:40 33.68175 104.11203 31979 ft 461 kts 356°
2026-04-26 07:41 33.74601 104.11200 31978 ft 461 kts 355°
2026-04-26 07:41 33.81022 104.11195 31976 ft 461 kts 355°
2026-04-26 07:42 33.87400 104.11193 31911 ft 460 kts 355°
2026-04-26 07:42 33.90595 104.11193 31751 ft 460 kts 356°
2026-04-26 07:42 33.93806 104.11192 31583 ft 462 kts 356°
2026-04-26 07:42 33.97027 104.11192 31414 ft 462 kts 356°
2026-04-26 07:43 34.00244 104.11193 31242 ft 462 kts 356°
2026-04-26 07:43 34.03457 104.11193 31081 ft 463 kts 356°
2026-04-26 07:43 34.06684 104.11193 30920 ft 464 kts 356°
2026-04-26 07:43 34.09910 104.11193 30756 ft 464 kts 356°
2026-04-26 07:44 34.13135 104.11193 30598 ft 463 kts 356°
2026-04-26 07:44 34.16356 104.11194 30432 ft 462 kts 356°
2026-04-26 07:44 34.19565 104.11194 30279 ft 461 kts 356°
2026-04-26 07:44 34.22775 104.11195 30121 ft 460 kts 356°
2026-04-26 07:45 34.25969 104.11195 29961 ft 459 kts 356°
2026-04-26 07:45 34.29151 104.11195 29780 ft 458 kts 356°
2026-04-26 07:45 34.32341 104.11195 29588 ft 456 kts 356°
2026-04-26 07:45 34.35508 104.11196 29405 ft 455 kts 356°
2026-04-26 07:46 34.38675 104.11196 29219 ft 454 kts 356°
2026-04-26 07:46 34.41832 104.11196 29043 ft 453 kts 356°
2026-04-26 07:46 34.44935 104.11195 28851 ft 451 kts 356°
2026-04-26 07:46 34.48071 104.11195 28678 ft 450 kts 356°
2026-04-26 07:47 34.51202 104.11195 28493 ft 449 kts 356°
2026-04-26 07:47 34.54321 104.11195 28316 ft 447 kts 356°
2026-04-26 07:47 34.57430 104.11195 28141 ft 446 kts 356°
2026-04-26 07:47 34.60520 104.11195 27855 ft 444 kts 356°
2026-04-26 07:48 34.63610 104.11195 27504 ft 443 kts 356°
2026-04-26 07:48 34.66678 104.11196 27159 ft 440 kts 356°
2026-04-26 07:48 34.69730 104.11196 26820 ft 437 kts 356°
2026-04-26 07:48 34.72771 104.11196 26475 ft 435 kts 356°
2026-04-26 07:49 34.75787 104.11196 26137 ft 433 kts 356°
2026-04-26 07:49 34.78792 104.11196 25807 ft 431 kts 356°
2026-04-26 07:49 34.81785 104.11196 25480 ft 429 kts 356°
2026-04-26 07:50 34.87728 104.11197 24832 ft 425 kts 356°
2026-04-26 07:50 34.90637 104.11197 24520 ft 423 kts 356°
2026-04-26 07:50 34.93573 104.11197 24209 ft 421 kts 356°
2026-04-26 07:50 34.96501 104.11197 23895 ft 419 kts 356°
2026-04-26 07:51 34.99411 104.11196 23594 ft 418 kts 356°
2026-04-26 07:51 35.02318 104.11196 23233 ft 416 kts 356°
2026-04-26 07:51 35.05148 104.11196 22870 ft 413 kts 356°
2026-04-26 07:51 35.08011 104.11196 22506 ft 410 kts 356°
2026-04-26 07:52 35.10856 104.11195 22153 ft 408 kts 356°
2026-04-26 07:52 35.13687 104.11193 21800 ft 406 kts 356°
2026-04-26 07:52 35.16509 104.11193 21448 ft 404 kts 356°
2026-04-26 07:52 35.19309 104.11193 21101 ft 401 kts 357°
2026-04-26 07:53 35.22092 104.11193 20766 ft 399 kts 357°
2026-04-26 07:53 35.24865 104.11192 20433 ft 397 kts 357°
2026-04-26 07:53 35.27623 104.11193 20099 ft 395 kts 357°
2026-04-26 07:53 35.30358 104.11193 19771 ft 393 kts 356°
2026-04-26 07:54 35.33093 104.11192 19443 ft 391 kts 357°
2026-04-26 07:54 35.35803 104.11191 19127 ft 389 kts 357°
2026-04-26 07:54 35.38507 104.11190 18813 ft 387 kts 357°
2026-04-26 07:54 35.41194 104.11191 18501 ft 385 kts 357°
2026-04-26 07:55 35.43866 104.11190 18174 ft 382 kts 357°
2026-04-26 07:55 35.46516 104.11190 17814 ft 380 kts 357°
2026-04-26 07:55 35.49156 104.11190 17461 ft 379 kts 357°
2026-04-26 07:55 35.51781 104.11190 17099 ft 376 kts 357°
2026-04-26 07:56 35.54385 104.11201 16749 ft 372 kts 358°
2026-04-26 07:56 35.56964 104.11214 16404 ft 370 kts 358°
2026-04-26 07:56 35.59529 104.11227 16062 ft 367 kts 359°
2026-04-26 07:56 35.62074 104.11236 15716 ft 364 kts 359°
2026-04-26 07:57 35.64598 104.11245 15386 ft 362 kts 359°
2026-04-26 07:57 35.67075 104.11252 15056 ft 358 kts 360°
2026-04-26 07:57 35.69554 104.11258 14721 ft 356 kts
2026-04-26 07:57 35.72027 104.11264 14400 ft 353 kts
2026-04-26 07:58 35.74476 104.11275 14077 ft 351 kts
2026-04-26 07:58 35.76915 104.11283 13887 ft 348 kts
2026-04-26 07:58 35.79334 104.11292 13788 ft 349 kts
2026-04-26 07:58 35.81759 104.10897 13663 ft 357 kts 343°
2026-04-26 07:59 35.83962 104.09484 13415 ft 360 kts 323°
2026-04-26 07:59 35.85685 104.07252 13156 ft 360 kts 310°
2026-04-26 07:59 35.87210 104.04798 12902 ft 360 kts 308°
2026-04-26 07:59 35.88696 104.02328 12802 ft 358 kts 308°
2026-04-26 08:00 35.90192 103.99870 12739 ft 358 kts 309°
2026-04-26 08:00 35.91709 103.97428 12731 ft 359 kts 309°
2026-04-26 08:00 35.93238 103.94995 12721 ft 359 kts 309°
2026-04-26 08:00 35.94780 103.92561 12488 ft 360 kts 310°
2026-04-26 08:01 35.96298 103.90164 12248 ft 358 kts 310°
2026-04-26 08:01 35.97814 103.87743 12000 ft 355 kts 307°
2026-04-26 08:01 35.99060 103.85113 11837 ft 355 kts 296°
2026-04-26 08:01 35.99884 103.82248 11761 ft 355 kts 285°
2026-04-26 08:02 36.00435 103.79251 11756 ft 360 kts 284°
2026-04-26 08:02 36.01002 103.76221 11748 ft 365 kts 284°
2026-04-26 08:02 36.01578 103.73160 11758 ft 366 kts 285°
2026-04-26 08:02 36.02150 103.70112 11752 ft 363 kts 284°
2026-04-26 08:03 36.02717 103.67082 11754 ft 361 kts 284°
2026-04-26 08:03 36.03280 103.64072 11758 ft 358 kts 284°
2026-04-26 08:03 36.03840 103.61070 11758 ft 360 kts 284°
2026-04-26 08:03 36.04403 103.58048 11747 ft 358 kts 284°
2026-04-26 08:04 36.04950 103.55103 11748 ft 344 kts 284°
2026-04-26 08:04 36.05472 103.52278 11746 ft 331 kts 284°
2026-04-26 08:04 36.05984 103.49512 11746 ft 327 kts 284°
2026-04-26 08:04 36.06484 103.46806 11744 ft 319 kts 284°
2026-04-26 08:05 36.06966 103.44198 11671 ft 313 kts 284°
2026-04-26 08:05 36.07450 103.41568 11290 ft 315 kts 285°
2026-04-26 08:05 36.07934 103.38940 10979 ft 311 kts 285°
2026-04-26 08:05 36.08408 103.36330 10531 ft 312 kts 285°
2026-04-26 08:06 36.09108 103.33844 10227 ft 301 kts 304°
2026-04-26 08:06 36.10489 103.32002 10022 ft 288 kts 331°
2026-04-26 08:06 36.12369 103.31105 9927 ft 291 kts 356°
2026-04-26 08:06 36.14368 103.30958 9835 ft 287 kts
2026-04-26 08:07 36.16356 103.30856 9733 ft 284 kts
2026-04-26 08:07 36.18314 103.30865 9729 ft 280 kts 12°
2026-04-26 08:07 36.20114 103.31683 9735 ft 275 kts 36°
2026-04-26 08:07 36.21424 103.33356 9734 ft 269 kts 60°
2026-04-26 08:08 36.21978 103.35453 9735 ft 255 kts 84°
2026-04-26 08:08 36.21781 103.37553 9734 ft 242 kts 107°
2026-04-26 08:08 36.21052 103.39423 9733 ft 244 kts 110°
2026-04-26 08:08 36.20778 103.41478 9701 ft 245 kts 81°
2026-04-26 08:09 36.21131 103.43533 9593 ft 242 kts 74°
2026-04-26 08:09 36.21567 103.45535 9490 ft 241 kts 73°
2026-04-26 08:09 36.22012 103.47529 9372 ft 238 kts 73°
2026-04-26 08:09 36.22444 103.49506 9239 ft 237 kts 73°
2026-04-26 08:10 36.22871 103.51476 9124 ft 237 kts 74°
2026-04-26 08:10 36.23292 103.53456 9026 ft 238 kts 74°
2026-04-26 08:10 36.23711 103.55450 8888 ft 242 kts 73°
2026-04-26 08:10 36.24142 103.57483 8819 ft 244 kts 74°
2026-04-26 08:11 36.24557 103.59496 8827 ft 239 kts 73°
2026-04-26 08:11 36.24968 103.61490 8816 ft 238 kts 73°
2026-04-26 08:11 36.25416 103.63477 8822 ft 241 kts 66°
2026-04-26 08:11 36.26435 103.65073 8783 ft 238 kts 34°
2026-04-26 08:12 36.27915 103.65782 8767 ft 226 kts 13°
2026-04-26 08:12 36.29458 103.65938 8765 ft 213 kts
2026-04-26 08:12 36.30878 103.65892 8767 ft 201 kts
2026-04-26 08:12 36.32245 103.65808 8780 ft 195 kts
2026-04-26 08:13 36.33606 103.65725 8790 ft 197 kts
2026-04-26 08:13 36.34972 103.65634 8781 ft 196 kts
2026-04-26 08:13 36.36318 103.65546 8783 ft 194 kts
2026-04-26 08:13 36.37683 103.65463 8788 ft 196 kts
2026-04-26 08:14 36.39053 103.65373 8579 ft 192 kts
2026-04-26 08:14 36.40308 103.65289 8342 ft 169 kts
2026-04-26 08:14 36.41400 103.65221 8141 ft 147 kts
2026-04-26 08:14 36.42386 103.65157 7959 ft 141 kts
2026-04-26 08:15 36.43402 103.65096 7788 ft 151 kts
2026-04-26 08:15 36.44440 103.65026 7585 ft 148 kts
2026-04-26 08:15 36.45396 103.64966 7417 ft 147 kts
2026-04-26 08:15 36.46450 103.64899 7184 ft 148 kts
2026-04-26 08:16 36.47453 103.64833 6979 ft 148 kts
2026-04-26 08:16 36.48488 103.64768 6757 ft 149 kts
2026-04-26 08:16 36.49531 103.64701 6561 ft 152 kts 360°
2026-04-26 08:16 36.50581 103.64634 6356 ft 147 kts
2026-04-26 08:17 36.51456 103.64584 6356 ft 89 kts 356°
2026-04-26 08:17 36.51776 103.64563 6361 ft 2 kts 358°
2026-04-26 08:17 36.51787 103.64560 6361 ft 4 kts 348°
2026-04-26 08:17 36.51824 103.64554 6362 ft 6 kts 356°
2026-04-26 08:18 36.51869 103.64551 6361 ft 6 kts 356°
2026-04-26 08:18 36.51910 103.64548 6363 ft 6 kts 356°
2026-04-26 08:18 36.51953 103.64545 6367 ft 8 kts 356°
2026-04-26 08:18 36.52019 103.64532 6368 ft 11 kts 349°
2026-04-26 08:19 36.52101 103.64499 6367 ft 13 kts 334°
2026-04-26 08:19 36.52179 103.64451 6366 ft 11 kts 332°
2026-04-26 08:19 36.52225 103.64419 6365 ft 12 kts 325°
2026-04-26 08:19 36.52250 103.64335 6375 ft 9 kts 267°
2026-04-26 08:20 36.52247 103.64241 6375 ft 13 kts 268°
2026-04-26 08:20 36.52251 103.64128 6370 ft 11 kts 298°
2026-04-26 08:20 36.52297 103.64055 6373 ft 7 kts 307°
2026-04-26 08:20 36.52334 103.64039 6371 ft 5 kts 17°
2026-04-26 08:21 36.52344 103.64077 6369 ft 6 kts 88°
2026-04-26 08:21 36.52346 103.64137 6372 ft 5 kts 87°
2026-04-26 08:21 36.52346 103.64148 6369 ft 0 kts 87°